Location: ??????
(38.0040°N, 23.9967°E)
Time: 10:03:37
(UTC+00:00)

Daily predictions for brighter satellites

Satellite Brightness Start Highest point End
(mag) Time Altitude Azimuth Time Altitude Azimuth Time Altitude Azimuth
Meteor 2-2 Rocket 4.3 17:53:59 10° N 17:59:44 72° E 18:05:22 10° SSE
SL-16 R/B 4.0 17:56:25 10° NNE 17:59:45 16° NE 18:03:04 10° E
Cosmos 1242 Rocket 2.9 17:59:33 10° NNW 18:03:04 65° W 18:06:32 10° S
RESURS DK-1 3.7 18:02:06 10° SW 18:06:06 46° WNW 18:10:07 10° NNE
Cosmos 1689 Rocket 1.9 18:05:25 10° N 18:08:10 82° WNW 18:10:53 10° SSW
Cosmos 2360 4.5 18:04:13 10° NNW 18:09:53 74° WSW 18:15:32 10° SSE
Cosmos 1697 Rocket 3.2 18:05:36 10° NNW 18:11:12 63° WSW 18:16:45 10° S
Cosmos 1538 Rocket 4.0 18:07:23 10° S 18:12:33 70° ESE 18:17:42 10° NNE
Cosmos 2058 3.7 18:10:14 10° SSW 18:14:20 58° W 18:18:30 10° N
SEDSat Delta rocket 4.2 18:14:00 10° WSW 18:17:30 26° SSW 18:20:39 11° SE
CZ-4 R/B 4.3 18:15:13 10° SW 18:17:56 17° W 18:20:39 10° NW
Cosmos 2098 Rocket 2.6 18:15:28 10° SSE 18:18:27 48° E 18:21:57 10° NNE
OBJECT-B 1.2 18:18:51 10° S 18:22:01 63° W 18:25:12 10° NNW
Cosmos 1437 4.4 18:19:35 10° NNW 18:22:02 29° W 18:24:27 10° SSW
Ariane Rocket 3.3 18:19:49 10° SE 18:24:42 50° ENE 18:29:36 10° N
USA 186 3.0 18:24:08 10° S 18:26:58 37° W 18:29:37 10° NNW
Cosmos 2082 Rocket 3.5 18:22:17 10° SW 18:27:40 45° WNW 18:33:05 10° N
Cosmos 2279 Rocket 4.4 18:25:34 10° NNW 18:31:41 66° W 18:37:48 10° S
Cosmos 1842 Rocket 3.8 18:28:14 10° NNW 18:32:43 73° W 18:37:10 10° S
ATLAS 3B R/B 2.9 18:26:19 10° NNW 18:33:31 75° ENE 18:40:03 14° SE
Cosmos 304 Rocket 4.5 18:31:43 10° N 18:36:10 37° ENE 18:39:16 18° SE
BREEZE-M DEB (TANK) 3.6 18:35:34 10° NNW 18:38:22 32° NE 18:43:58 11° E
Cosmos 2278 3.7 18:32:43 10° NNW 18:38:24 88° ENE 18:43:41 12° SSE
Cosmos 2360 Rocket 4.2 18:35:53 10° NNE 18:38:53 14° NE 18:41:52 10° E
Cosmos 1092 Rocket 4.3 18:33:03 10° SSE 18:38:59 48° E 18:45:01 10° NNE
NOSS 2-1 (C) 3.6 18:37:59 10° S 18:41:07 30° ESE 18:44:02 10° NE
Resurs 1-3 3.5 18:36:55 10° SSE 18:41:17 85° ENE 18:45:41 10° N
Atlas Centaur 2 2.7 18:38:57 10° WSW 18:43:04 28° S 18:45:04 19° SSE
Cosmos 1606 3.3 18:43:13 10° NNW 18:46:57 57° W 18:50:40 10° S
Cosmos 2026 Rocket 4.3 18:42:08 10° SSE 18:48:06 45° E 18:54:01 10° NNE
NOSS 2-1 (D) 3.3 18:45:34 10° S 18:48:52 38° ESE 18:51:55 10° NE
COSMOS 2455 4.4 18:51:48 15° E 18:51:48 15° E 18:54:36 10° ENE
Cosmos 2151 2.9 18:47:52 10° S 18:52:05 86° E 18:56:23 10° N
Cosmos 2221 3.9 18:48:34 10° NNW 18:52:34 38° W 18:56:35 10° SSW
SJ-6B 4.4 18:49:18 10° SSW 18:52:38 32° W 18:56:01 10° NNW
Cosmos 158 Rocket 4.4 18:50:22 10° SSW 18:55:27 65° WNW 19:00:43 10° NNE
Nadezhda 4 Rocket 4.3 18:50:09 10° SSW 18:56:17 71° W 19:02:31 10° N
Cosmos 2084 3.2 18:53:31 10° SSW 18:57:31 70° ESE 19:01:37 10° NE
ISS -3.8 18:54:38 10° NW 18:58:01 89° NE 18:59:15 36° SE
Cosmos 923 Rocket 4.0 18:53:21 10° SSW 18:58:40 79° ESE 19:04:01 10° NNE
Cosmos 2333 Rocket 4.5 18:58:40 10° NE 18:59:27 10° NE 19:00:13 10° NE
SPOT 1/Viking Rocket 4.0 18:57:49 24° SE 19:00:35 44° ENE 19:05:32 10° N
Centaur D AC-29 4.1 18:44:50 10° W 19:00:42 21° SW 19:05:57 10° S
Cosmos 1980 Rocket 3.1 18:55:28 10° NW 19:00:50 46° WSW 19:06:12 10° S
Meteor 2-15 4.4 18:56:08 10° N 19:02:14 81° E 19:07:10 16° S
ERS-2 2.7 18:58:43 10° N 19:02:19 58° WNW 19:05:52 10° SSW
GP-B 3.7 19:01:10 10° NNE 19:05:18 37° E 19:06:34 31° SE
USA 245 4.4 19:04:54 27° ESE 19:06:42 37° ENE 19:10:33 10° N
Cosmos 1627 Rocket 4.5 19:03:32 10° S 19:09:50 72° E 19:16:06 10° N
SL-27 R/B 3.8 19:11:16 25° ENE 19:11:16 25° ENE 19:13:29 10° NE
Okean 3 Rocket 4.0 19:10:45 33° SE 19:12:07 43° E 19:16:23 10° NNE
Cosmos 371 Rocket 4.1 19:07:37 10° NNW 19:12:14 48° WSW 19:15:53 16° S
Cosmos 2322 Rocket 2.7 19:08:26 10° N 19:13:49 44° ENE 19:16:06 29° ESE
Cosmos 1428 Rocket 4.4 19:09:43 11° S 19:15:40 78° E 19:21:48 10° N
Meteor 1-26 Rocket 4.2 19:12:46 10° N 19:18:40 74° E 19:21:43 29° SSE
USA 276 2.5 19:17:37 10° NW 19:20:42 51° NNE 19:20:56 49° NE
Meteor 2-15 Rocket 4.4 19:15:45 10° N 19:21:50 90° W 19:25:46 23° S
CARTOSAT-1 4.1 19:22:24 37° E 19:23:10 41° ENE 19:27:13 10° N
Spot 2 Rocket 3.9 19:22:53 35° ESE 19:24:28 47° ENE 19:29:21 10° N
Cosmos 2219 Rocket 4.1 19:27:51 10° NNE 19:30:55 15° NE 19:32:44 13° ENE
Cosmos 1680 Rocket 3.8 19:27:26 10° SSW 19:32:41 68° WNW 19:37:56 10° NNE
Cosmos 2112 Rocket 4.1 19:27:51 10° SSW 19:33:09 80° WNW 19:38:27 10° NNE
Resurs 01 Rocket 2.5 19:31:16 21° SSW 19:33:51 45° W 19:38:07 10° NNW
ATLAS 2A CENTAUR R/B 4.3 19:21:36 10° WSW 19:35:40 34° SSW 19:37:15 30° S
Cosmos 1371 Rocket 4.4 19:31:05 10° N 19:36:19 50° ENE 19:37:34 42° ESE
Cosmos 1553 Rocket 4.1 19:33:59 10° N 19:39:58 56° E 19:41:45 42° SE
Terra 2.8 19:40:07 30° ENE 19:40:24 31° ENE 19:44:33 10° N
Cosmos 1809 Rocket 4.3 19:39:20 27° S 19:42:53 84° E 19:49:03 10° N
Cosmos 1151 Rocket 2.9 19:39:58 10° N 19:44:21 85° E 19:44:57 66° SSE
SPOT 3 Rocket 4.1 19:41:43 26° SSW 19:44:28 53° W 19:49:35 10° NNW
SL-16 R/B 2.2 19:38:49 10° NNW 19:44:30 78° WSW 19:46:27 43° S
NOSS 2-1 (E) 4.1 19:43:50 10° SW 19:47:03 42° NW 19:50:12 10° NNE
ATLAS 5 CENTAUR R/B 4.4 19:45:20 10° N 19:48:32 15° NE 19:51:36 11° ENE
CZ-2C R/B 4.4 19:47:27 10° N 19:51:47 50° WNW 19:54:30 21° SW
Cosmos 1766 Rocket 4.0 19:50:48 35° SW 19:52:25 59° W 19:56:44 10° N
Cosmos 2237 4.2 19:48:51 10° NNW 19:54:34 73° ENE 19:55:45 55° SE
Cosmos 1271 Rocket 4.3 19:53:03 10° NNW 19:56:38 32° W 19:57:44 27° SW
SPOT 5 2.6 19:57:34 64° ENE 19:57:34 64° ENE 20:01:48 10° N
Cosmos 1328 Rocket 3.4 19:53:30 10° N 19:57:57 90° NW 19:58:06 84° S
COSMOS 2428 4.3 19:54:17 10° N 19:58:25 20° NE 19:59:31 19° ENE
Gbstr 26 Del rocket 2.9 19:54:49 10° NW 19:58:12 67° W 19:58:12 67° W
ARIANE 5 R/B 2.5 19:58:58 82° SE 19:59:09 86° ENE 20:03:36 10° NNW
Cosmos 1862 3.5 20:04:11 68° NW 20:04:11 68° NW 20:07:51 10° N
Cosmos 1417 Rocket 4.4 20:01:28 10° N 20:07:47 79° E 20:09:04 58° SSE
Meteor 2-21 Rocket 4.3 20:06:03 50° S 20:07:48 84° E 20:14:00 10° N
Cosmos 292 Rocket 4.2 20:04:19 10° N 20:08:41 50° NE 20:08:41 50° NE
Meteor 2-6 Rocket 3.9 20:03:44 10° N 20:09:09 89° E 20:09:48 70° SSE
Cosmos 1655 Rocket 3.9 20:09:18 57° SSE 20:10:32 71° E 20:16:55 10° NNE
Cosmos 1782 4.3 20:07:40 10° NNW 20:11:13 31° W 20:11:44 29° WSW
S3M 4.0 20:05:44 10° N 20:12:07 69° E 20:13:09 59° SE
Cosmos 972 Rocket 4.5 20:15:35 48° ENE 20:15:35 48° ENE 20:19:36 10° NNE
Cosmos 1624 Rocket 3.9 20:10:32 10° NNW 20:15:46 79° WSW 20:16:05 75° SSW
Cosmos 2360 Rocket 2.0 20:17:56 10° NNW 20:23:36 84° WSW 20:23:55 79° SSW
Cosmos 1420 Rocket 3.9 20:18:57 10° NNW 20:24:12 81° NE 20:24:12 81° NE
USA 267 3.5 20:22:20 10° NE 20:27:32 49° E 20:27:32 49° E
Cosmos 1500 Rocket 4.4 20:34:48 49° N 20:34:48 49° N 20:38:05 10° N
COSMOS 2455 2.9 20:34:51 50° SW 20:36:27 73° WNW 20:42:28 10° NNE
ERS-1 Rocket 3.7 20:40:25 45° W 20:40:27 45° W 20:45:16 10° NNW
Lacrosse 5 4.4 20:46:40 11° NE 20:46:40 11° NE 20:46:48 10° NE
Meteor 1-27 Rocket 3.7 20:37:56 10° N 20:43:21 77° NE 20:43:21 77° NE
Cosmos 2333 Rocket 2.3 20:39:08 10° NNW 20:44:24 66° NE 20:44:24 66° NE
Cosmos 1452 Rocket 3.9 20:41:32 10° NNW 20:45:57 55° NNE 20:45:57 55° NNE
Cosmos 2297 Rocket 4.2 20:50:20 16° ENE 20:50:20 16° ENE 20:51:46 10° NE
Cosmos 2322 3.8 20:46:15 10° NNW 20:51:30 70° NNE 20:51:30 70° NNE
Cosmos 2237 Rocket 3.9 20:53:10 10° N 20:57:29 22° NE 20:57:41 22° ENE
Cosmos 2322 Rocket 3.8 20:53:10 10° NW 20:57:30 23° W 20:57:55 23° WSW
Cosmos 2227 Rocket 4.3 21:02:42 14° ENE 21:02:42 14° ENE 21:03:52 10° NE
Cosmos 2219 Rocket 2.6 21:09:57 10° NNW 21:14:26 58° NW 21:14:26 58° NW
Terra 3.7 21:19:00 24° WNW 21:19:00 24° WNW 21:22:01 10° NW
Cosmos 2285 Rocket 4.2 21:20:45 10° NNW 21:26:17 64° WNW 21:26:17 64° WNW
Cosmos 2315 Rocket 4.5 21:25:04 10° NNW 21:30:56 52° W 21:30:56 52° W
ATLAS 5 CENTAUR R/B 2.7 21:28:09 10° NNW 21:33:05 63° N 21:33:05 63° N
COSMOS 2428 3.6 21:37:30 10° NNW 21:41:31 43° NW 21:41:31 43° NW
Cosmos 1745 Rocket 4.4 21:54:37 56° NNE 21:54:37 56° NNE 21:59:34 10° N
Cosmos 2219 4.2 22:00:29 42° NNE 22:00:29 42° NNE 22:04:12 10° NNE
USA 229 DEB 4.2 21:58:03 10° NW 22:04:27 55° W 22:04:27 55° W
USA 229 4.2 21:58:09 10° NW 22:04:33 56° W 22:04:33 56° W
USA 267 4.2 22:05:29 10° NE 22:11:35 44° NW 22:14:48 26° W
Nadezhda 1 Rocket 4.4 22:08:01 10° N 22:13:14 62° N 22:13:14 62° N
Lacrosse 5 3.5 22:25:50 30° NNW 22:25:50 30° NNW 22:29:36 10° NNE
Cosmos 2297 Rocket 3.3 22:32:08 39° NNW 22:32:08 39° NNW 22:36:27 10° N
Resurs 1-4 Rocket 4.5 22:38:48 10° ENE 22:40:13 13° ENE 22:40:13 13° ENE
Cosmos 2237 Rocket 3.6 22:36:20 10° NNW 22:39:29 32° NW 22:39:29 32° NW
USA 234 3.4 22:42:59 70° NNE 22:42:59 70° NNE 22:49:18 10° NW
Cosmos 2227 Rocket 3.3 22:44:30 40° NNW 22:44:30 40° NNW 22:48:43 10° N
Cosmos 2263 Rocket 3.7 22:57:34 29° ENE 22:57:34 29° ENE 23:00:51 10° NE
SL-16 R/B 4.4 22:55:16 18° E 22:57:23 21° ENE 23:01:51 10° NNE
Cosmos 2181 Rocket 4.3 23:02:55 10° N 23:08:03 62° N 23:08:03 62° N
SL-16 R/B 3.1 23:05:51 10° NNW 23:09:38 44° NNW 23:09:38 44° NNW
Nadezhda 3 Rocket 4.4 23:31:41 10° N 23:37:54 55° E 23:38:05 55° E
Cosmos 407 Rocket 4.3 23:43:29 50° N 23:43:29 50° N 23:47:21 10° NNE
Cosmos 1943 4.3 23:38:20 10° N 23:43:40 39° ENE 23:44:45 36° E
CZ-2D R/B 2.7 23:41:02 10° NNE 23:45:32 53° ENE 23:45:32 53° ENE
NPP 4.4 23:42:30 10° NNE 23:46:59 45° ENE 23:46:59 45° ENE
